Waarnemingen

Advertentie
Mijn weer
Lichtenhain-Mittelndorf, Duitsland (10591): temperatuur & dauwpunt: 22.05.2017 06:00:00 - 28.05.2017 06:00:00 (CEST)Lichtenhain-Mittelndorf, Duitsland (10591): temperatuur 5cm & temperatuur -5cm: 22.05.2017 06:00:00 - 28.05.2017 06:00:00 (CEST)Lichtenhain-Mittelndorf, Duitsland (10591): temperatuur -20cm & temperatuur -100cm: 22.05.2017 06:00:00 - 28.05.2017 06:00:00 (CEST)Lichtenhain-Mittelndorf, Duitsland (10591): windsnelheid & windstoten: 22.05.2017 06:00:00 - 28.05.2017 06:00:00 (CEST)Lichtenhain-Mittelndorf, Duitsland (10591): windrichting: 22.05.2017 06:00:00 - 28.05.2017 06:00:00 (CEST)Lichtenhain-Mittelndorf, Duitsland (10591): luchtdruk: 22.05.2017 06:00:00 - 28.05.2017 06:00:00 (CEST)Lichtenhain-Mittelndorf, Duitsland (10591): zicht: 22.05.2017 06:00:00 - 28.05.2017 06:00:00 (CEST)Lichtenhain-Mittelndorf, Duitsland (10591): Zonneschijnduur: 22.05.2017 06:00:00 - 28.05.2017 06:00:00 (CEST)Lichtenhain-Mittelndorf, Duitsland (10591): neerslag: 22.05.2017 06:00:00 - 28.05.2017 06:00:00 (CEST)
Datum & Tijd tt [°C] td [°C] tt 5cm [°C] tt -5cm [°C] tt -20cm [°C] tt -100cm [°C] ff [km/u] ff [kn] fx [km/u] fx [kn] dd ppp [hPa] vv [km] sd [min] rr [mm]
28.05.2017 06:00:00 14,7 7,8 13,2 15,0 18,9 13,9 15 8 27 14 OZO 1022,8 70 33 0,0
28.05.2017 05:00:00 14,5 7,8 12,7 15,3 19,4 13,9 15 8 27 15 OZO 1022,9 70 0 0,0
28.05.2017 04:00:00 14,7 7,9 12,6 15,8 20,0 13,8 11 6 21 11 ZO 1023,0 70 0 0,0
28.05.2017 03:00:00 14,6 7,9 13,0 16,4 20,6 13,8 13 7 19 10 ZZO 1023,2 70 0 0,0
28.05.2017 02:00:00 15,1 8,0 13,2 17,1 21,2 13,8 11 6 17 9 ZZO 1023,3 70 0 0,0
28.05.2017 01:00:00 16,5 7,9 13,9 18,1 21,9 13,8 10 5 24 13 ZO 1023,2 70 0 0,0
28.05.2017 00:00:00 15,8 7,4 12,2 19,0 22,6 13,8 10 6 13 7 O 1023,0 70 0 0,0
27.05.2017 23:00:00 17,0 7,0 11,3 20,4 23,3 13,8 7 4 18 10 OZO 1022,8 70 0 0,0
27.05.2017 22:00:00 17,9 6,5 14,5 22,1 23,9 13,8 11 6 21 11 O 1022,3 70 5 0,0
27.05.2017 21:00:00 19,3 4,8 15,9 24,4 24,4 13,8 13 7 19 11 O 1021,8 70 60 0,0
27.05.2017 20:00:00 21,5 6,3 20,9 27,4 24,6 13,8 15 8 21 12 O 1021,2 47 60 0,0
27.05.2017 19:00:00 23,0 7,2 24,1 29,9 24,5 13,8 12 7 22 12 ONO 1020,9 52 60 0,0
27.05.2017 18:00:00 23,5 5,0 25,9 32,0 24,1 13,8 14 7 24 13 ONO 1021,0 26 60 0,0
27.05.2017 17:00:00 24,1 6,7 27,4 33,4 23,4 13,8 15 8 27 15 ONO 1021,0 43 60 0,0
27.05.2017 16:00:00 23,9 5,9 28,6 34,2 22,5 13,8 5 3 22 12 O 1021,5 39 60 0,0
27.05.2017 15:00:00 23,2 7,1 28,8 33,9 21,4 13,8 10 5 25 13 ONO 1022,1 40 60 0,0
27.05.2017 14:00:00 23,2 10,0 29,2 32,8 20,2 13,8 16 9 29 16 ONO 1022,2 22 60 0,0
27.05.2017 13:00:00 22,1 7,0 28,4 31,2 19,0 13,8 13 7 31 17 NNO 1022,9 27 59 0,0
27.05.2017 12:00:00 21,4 8,0 27,8 29,0 17,9 13,8 17 9 29 15 NNO 1022,9 19 60 0,0
27.05.2017 11:00:00 21,6 9,2 27,7 26,0 16,9 13,8 12 7 27 15 NO 1023,0 38 60 0,0
27.05.2017 10:00:00 20,4 8,6 25,4 23,0 16,2 13,8 11 6 21 12 NO 1023,1 36 60 0,0
27.05.2017 09:00:00 18,9 12,0 23,5 19,5 15,8 13,8 4 2 7 4 N 1023,2 40 60 0,0
27.05.2017 08:00:00 15,7 11,4 18,5 15,4 15,9 13,7 4 2 6 4 NNO 1023,2 30 60 0,0
27.05.2017 07:00:00 13,7 10,8 10,8 12,7 16,2 13,7 4 2 9 5 OZO 1023,1 23 60 0,0
27.05.2017 06:00:00 11,8 10,0 9,0 12,5 16,6 13,7 3 2 8 4 ONO 1023,1 23 30 0,0
27.05.2017 05:00:00 10,6 9,7 8,8 12,8 17,1 13,7 3 2 6 3 ONO 1023,4 17 0 0,0
27.05.2017 04:00:00 10,6 9,7 7,2 13,5 17,6 13,7 3 2 11 6 ZZW 1023,3 16 0 0,0
27.05.2017 03:00:00 11,4 9,8 10,4 14,2 18,0 13,7 7 4 9 5 N 1022,7 18 0 0,0
27.05.2017 02:00:00 11,8 9,9 10,6 14,8 18,5 13,7 3 2 11 6 NW 1022,6 21 0 0,0
27.05.2017 01:00:00 13,7 10,3 11,3 15,6 19,1 13,7 7 4 11 6 NO 1022,2 39 0 0,0
27.05.2017 00:00:00 13,5 10,5 9,8 16,5 19,6 13,7 8 5 11 6 NO 1022,2 37 0 0,0
26.05.2017 23:00:00 14,8 10,6 9,3 17,7 20,2 13,8 6 3 11 6 NO 1021,4 50 0 0,0
26.05.2017 22:00:00 16,1 10,8 11,7 19,1 20,6 13,8 8 4 14 7 NNO 1020,7 47 0 0,0
26.05.2017 21:00:00 17,9 10,6 16,1 21,0 20,9 13,8 11 6 24 13 N 1019,9 58 39 0,0
26.05.2017 20:00:00 19,6 10,9 19,2 23,1 21,0 13,8 16 9 29 16 N 1019,5 27 55 0,0
26.05.2017 19:00:00 20,1 11,5 20,7 25,2 20,8 13,8 18 10 33 18 N 1019,2 54 52 0,0
26.05.2017 18:00:00 21,1 11,8 23,5 26,4 20,3 13,8 16 9 31 17 NNW 1019,0 52 35 0,0
26.05.2017 17:00:00 21,9 12,5 25,9 27,3 19,8 13,8 17 9 28 15 NW 1019,2 23 42 0,0
26.05.2017 16:00:00 21,4 11,7 25,6 27,3 19,1 13,8 20 11 35 19 WNW 1019,6 26 40 0,0
26.05.2017 15:00:00 21,1 13,1 26,7 26,0 18,5 13,8 14 8 33 18 NW 1019,8 30 31 0,0
26.05.2017 14:00:00 19,1 12,6 22,9 24,9 17,8 13,8 21 12 34 18 NW 1020,5 29 10 0,0
26.05.2017 13:00:00 19,9 12,4 28,9 25,1 17,0 13,8 19 10 30 16 WNW 1020,7 42 35 0,0
26.05.2017 12:00:00 18,5 12,5 22,9 23,2 16,2 13,8 20 11 32 17 NNW 1020,8 33 24 0,0
26.05.2017 11:00:00 16,8 12,4 24,3 22,0 15,4 13,8 12 7 19 11 WNW 1021,4 22 25 0,0
26.05.2017 10:00:00 14,9 11,9 20,9 20,1 14,8 13,8 11 6 19 10 W 1021,7 15 45 0,0
26.05.2017 09:00:00 14,1 10,6 20,8 17,0 14,5 13,8 13 7 16 9 WNW 1021,7 25 57 0,0
26.05.2017 08:00:00 12,0 9,0 14,9 13,6 14,6 13,8 3 2 5 3 Z 1021,9 15 35 0,0
26.05.2017 07:00:00 10,0 8,4 9,3 11,0 14,9 13,8 2 1 5 3 NNO 1022,1 10 56 0,0
26.05.2017 06:00:00 8,6 7,7 6,7 10,5 15,3 13,8 5 3 6 4 NNO 1022,0 8 29 0,0
26.05.2017 05:00:00 8,4 7,7 7,2 11,0 15,8 13,8 5 3 6 3 NNO 1022,1 9 0 0,0
26.05.2017 04:00:00 8,6 7,8 6,2 11,7 16,2 13,8 3 2 6 4 ONO 1022,0 9 0 0,0
26.05.2017 03:00:00 9,5 8,2 7,0 12,1 16,7 13,8 4 2 4 2 ZO 1022,0 10 0 0,0
26.05.2017 02:00:00 9,5 8,0 5,3 12,8 17,2 13,8 2 1 4 2 ZZO 1022,1 15 0 0,0
26.05.2017 01:00:00 10,4 8,1 5,9 13,9 17,7 13,8 4 2 10 5 W 1022,2 21 0 0,0
26.05.2017 00:00:00 11,1 8,3 8,9 14,8 18,2 13,8 6 4 11 6 WNW 1022,0 28 0 0,0
25.05.2017 23:00:00 11,4 8,3 9,6 16,1 18,7 13,8 9 5 13 7 WNW 1021,9 31 0 0,0
25.05.2017 22:00:00 12,3 8,7 10,5 17,2 19,1 13,8 9 5 22 12 NW 1021,5 34 0 0,0
25.05.2017 21:00:00 14,1 9,0 13,3 19,3 19,3 13,8 13 7 27 15 NW 1020,6 42 35 0,0
25.05.2017 20:00:00 16,0 8,7 17,0 21,3 19,3 13,8 16 9 26 14 NW 1020,3 54 46 0,0
25.05.2017 19:00:00 15,9 8,7 17,4 21,7 19,2 13,9 16 9 29 16 NNW 1020,5 70 12 0,0
25.05.2017 18:00:00 16,4 8,4 18,6 23,1 19,0 13,9 16 8 25 14 NNW 1020,5 60 36 0,0
25.05.2017 17:00:00 17,3 8,9 22,7 23,6 18,5 13,9 16 8 33 18 NW 1020,7 42 6 0,0
25.05.2017 16:00:00 16,0 8,4 19,9 24,8 17,9 13,9 22 12 35 19 NNW 1021,2 38 31 0,0
25.05.2017 15:00:00 17,2 8,6 22,7 23,5 17,2 13,9 21 11 37 20 NNW 1020,9 28 22 0,0
25.05.2017 14:00:00 16,9 6,6 23,9 23,0 16,6 13,9 19 10 31 17 NW 1021,2 46 25 0,0
25.05.2017 13:00:00 14,7 8,1 18,7 21,7 16,0 13,9 16 9 25 13 NW 1021,6 47 15 0,0
25.05.2017 12:00:00 13,7 7,7 16,9 20,0 15,4 13,9 16 8 31 17 NW 1022,2 55 17 0,0
25.05.2017 11:00:00 13,6 7,7 18,0 19,6 14,9 13,9 12 6 22 12 WNW 1022,3 36 18 0,0
25.05.2017 10:00:00 12,7 8,0 17,0 18,3 14,4 13,9 13 7 21 11 W 1022,4 36 37 0,0
25.05.2017 09:00:00 12,1 8,0 18,3 15,3 14,2 13,9 10 6 20 11 W 1022,5 27 45 0,0
25.05.2017 08:00:00 10,3 7,7 11,5 13,3 14,2 13,9 12 6 19 11 W 1022,5 34 48 0,0
25.05.2017 07:00:00 9,5 7,3 9,7 11,7 14,3 13,9 6 3 12 7 W 1022,4 33 24 0,0
25.05.2017 06:00:00 8,9 7,6 8,5 10,9 14,6 13,9 4 2 9 5 W 1022,2 26 9 0,0
25.05.2017 05:00:00 8,1 6,8 6,3 10,3 15,0 13,9 7 4 13 7 WNW 1021,9 38 0 0,0
25.05.2017 04:00:00 8,7 7,4 7,5 11,3 15,3 13,8 9 5 12 6 NW 1021,6 33 0 0,0
25.05.2017 03:00:00 9,1 7,7 8,2 11,7 15,6 13,8 9 5 16 9 NW 1021,7 39 0 0,0
25.05.2017 02:00:00 9,3 7,7 8,6 12,4 15,9 13,8 9 5 15 8 NW 1021,7 45 0 0,0
25.05.2017 01:00:00 9,4 7,9 9,2 12,7 16,3 13,8 8 4 12 6 NW 1021,8 46 0 0,0
25.05.2017 00:00:00 9,4 8,0 8,9 12,8 16,7 13,8 5 3 15 8 NW 1021,8 46 0 0,0
24.05.2017 23:00:00 9,2 7,8 8,4 13,2 17,1 13,8 12 7 18 10 NW 1021,8 50 0 0,0
24.05.2017 22:00:00 9,4 7,5 8,1 14,1 17,5 13,8 11 6 27 15 NW 1021,6 55 0 0,0
24.05.2017 21:00:00 10,3 8,1 9,7 15,5 17,8 13,8 23 13 44 24 NNW 1021,1 41 0 0,5
24.05.2017 20:00:00 13,3 5,7 13,4 16,7 18,0 13,8 13 7 29 16 NW 1019,8 70 1 0,0
24.05.2017 19:00:00 13,7 5,7 14,3 17,6 18,1 13,8 16 9 41 22 NNW 1019,5 70 0 0,0
24.05.2017 18:00:00 14,2 5,3 15,1 18,6 18,0 13,8 21 11 46 25 NW 1019,3 67 2 0,0
24.05.2017 17:00:00 14,4 4,8 15,8 19,8 17,8 13,8 25 13 44 24 NW 1019,3 63 7 0,0
24.05.2017 16:00:00 14,4 5,1 17,1 19,9 17,6 13,7 23 13 43 23 NW 1019,3 70 9 0,0
24.05.2017 15:00:00 15,5 6,3 21,9 19,3 17,3 13,7 27 15 46 25 NW 1019,2 34 13 0,0
24.05.2017 14:00:00 14,0 6,0 17,9 18,8 17,1 13,7 23 12 39 21 WNW 1019,6 52 7 0,0
24.05.2017 13:00:00 12,9 5,9 16,4 17,7 16,9 13,7 23 12 37 20 NW 1020,0 36 4 0,0
24.05.2017 12:00:00 11,5 5,6 13,6 16,7 16,9 13,7 21 11 35 19 NW 1020,5 40 0 0,0
24.05.2017 11:00:00 11,2 6,0 14,2 16,2 16,8 13,7 21 12 41 22 NW 1020,4 44 1 0,0
24.05.2017 10:00:00 11,1 5,1 13,3 15,4 17,0 13,7 27 15 46 25 NW 1020,1 46 3 0,0
24.05.2017 09:00:00 10,4 5,9 11,4 14,0 17,3 13,7 21 11 44 24 WNW 1019,8 53 0 0,0
24.05.2017 08:00:00 10,1 6,1 10,5 13,5 17,7 13,6 21 11 40 22 NW 1019,6 60 0 0,0
24.05.2017 07:00:00 10,3 6,4 10,5 13,6 18,2 13,6 19 10 36 20 NW 1019,0 56 0 0,0
24.05.2017 06:00:00 10,2 6,2 9,4 13,8 18,8 13,6 22 12 39 21 NW 1018,6 61 0 0,0
24.05.2017 05:00:00 11,2 6,4 9,9 14,8 19,4 13,6 20 11 50 27 NW 1018,1 68 0 0,0
24.05.2017 04:00:00 13,1 9,7 12,1 16,4 19,8 13,6 24 13 45 24 NW 1017,6 34 0 0,0
24.05.2017 03:00:00 13,7 12,6 13,5 17,5 20,2 13,6 10 6 31 17 WNW 1017,2 9 0 0,3
24.05.2017 02:00:00 15,2 11,3 13,9 18,3 20,7 13,6 23 13 36 20 NW 1016,5 21 0 0,1
24.05.2017 01:00:00 15,7 11,4 15,5 19,0 21,1 13,6 8 4 19 11 WNW 1016,1 37 0 0,0
24.05.2017 00:00:00 16,2 11,4 15,4 19,5 21,6 13,6 15 8 38 20 NNW 1015,4 33 0 0,1
23.05.2017 23:00:00 17,8 10,0 16,2 20,7 22,1 13,6 2 1 8 4 WZW 1014,9 50 0 0,0
23.05.2017 22:00:00 18,8 9,8 17,2 21,5 22,6 13,6 6 3 11 6 Z 1015,0 57 0 0,0
23.05.2017 21:00:00 19,5 9,6 17,4 23,0 23,0 13,6 8 4 14 8 WZW 1014,9 51 5 0,0
23.05.2017 20:00:00 20,1 9,4 19,6 24,7 23,2 13,6 9 5 20 11 W 1014,8 52 0 0,0
23.05.2017 19:00:00 21,3 9,4 22,4 26,9 23,3 13,5 8 5 29 15 WNW 1014,6 52 42 0,0
23.05.2017 18:00:00 22,6 7,9 26,0 29,1 23,1 13,5 18 10 31 17 W 1014,7 42 50 0,0
23.05.2017 17:00:00 21,7 6,2 24,2 29,9 22,6 13,5 19 10 39 21 W 1015,2 49 58 0,0
23.05.2017 16:00:00 21,9 7,8 26,6 31,4 21,9 13,5 18 10 30 16 WNW 1015,3 24 58 0,0
23.05.2017 15:00:00 22,4 8,7 28,8 31,7 20,9 13,5 13 7 30 16 WZW 1015,2 31 57 0,0
23.05.2017 14:00:00 22,1 9,6 31,1 30,7 19,9 13,5 16 9 32 17 W 1015,5 32 58 0,0
23.05.2017 13:00:00 21,5 8,5 30,0 30,0 18,8 13,5 19 10 27 14 W 1016,0 32 60 0,0
23.05.2017 12:00:00 20,6 7,7 29,0 28,0 17,7 13,5 8 4 15 8 WNW 1016,3 40 60 0,0
23.05.2017 11:00:00 19,4 7,7 28,4 25,4 16,8 13,5 6 3 11 6 W 1016,6 44 60 0,0
23.05.2017 10:00:00 17,4 9,2 24,0 21,6 16,2 13,5 6 3 10 6 Z 1017,2 42 60 0,0
23.05.2017 09:00:00 16,0 7,8 22,4 18,3 15,9 13,5 3 1 6 3 W 1017,5 52 60 0,0
23.05.2017 08:00:00 12,7 8,5 16,2 14,7 16,1 13,5 2 1 11 6 ZO 1017,7 39 60 0,0
23.05.2017 07:00:00 9,5 7,0 9,4 12,4 16,5 13,5 6 3 9 5 ZO 1017,8 33 60 0,0
23.05.2017 06:00:00 9,2 7,0 7,0 12,2 16,9 13,5 3 1 8 4 O 1017,9 37 10 0,0
23.05.2017 05:00:00 9,1 6,9 8,1 12,7 17,4 13,5 5 3 9 5 ONO 1017,8 38 0 0,0
23.05.2017 04:00:00 9,4 7,0 6,9 13,3 18,0 13,4 6 3 8 4 ZO 1017,7 44 0 0,0
23.05.2017 03:00:00 9,5 7,1 6,2 14,0 18,5 13,4 3 2 6 4 OZO 1018,1 36 0 0,0
23.05.2017 02:00:00 10,9 7,3 7,1 14,8 19,1 13,4 5 3 7 4 ZO 1018,2 52 0 0,0
23.05.2017 01:00:00 11,0 7,1 9,3 15,8 19,7 13,4 3 2 7 4 ONO 1018,6 48 0 0,0
23.05.2017 00:00:00 13,3 7,3 9,7 16,8 20,3 13,4 5 3 6 3 NO 1018,4 54 0 0,0
22.05.2017 23:00:00 13,3 7,1 11,4 18,0 21,0 13,5 6 3 9 5 NO 1018,4 56 0 0,0
22.05.2017 22:00:00 14,9 7,2 9,9 19,6 21,5 13,5 8 4 11 6 O 1018,1 45 0 0,0
22.05.2017 21:00:00 16,2 7,2 13,3 21,7 21,9 13,5 10 5 14 7 ONO 1018,1 70 41 0,0
22.05.2017 20:00:00 17,7 7,3 17,2 24,2 22,0 13,5 11 6 18 10 O 1017,9 70 51 0,0
22.05.2017 19:00:00 18,9 7,4 20,4 27,3 21,7 13,5 14 7 22 12 ONO 1017,8 51 60 0,0
22.05.2017 18:00:00 20,4 8,2 24,0 28,8 21,1 13,5 11 6 22 12 O 1017,9 36 60 0,0
22.05.2017 17:00:00 19,7 7,4 23,9 29,3 20,4 13,5 9 5 23 12 ONO 1018,6 45 60 0,0
22.05.2017 16:00:00 19,5 8,2 24,6 28,9 19,6 13,5 11 6 22 12 ONO 1019,2 38 60 0,0
22.05.2017 15:00:00 19,2 7,9 26,1 27,3 18,9 13,4 7 4 21 11 N 1019,9 54 49 0,0
22.05.2017 14:00:00 17,7 6,5 22,0 25,2 18,2 13,4 12 6 21 12 NO 1020,7 69 0 0,0
22.05.2017 13:00:00 17,3 5,7 21,2 26,0 17,3 13,4 14 8 31 17 ONO 1021,1 70 52 0,0
22.05.2017 12:00:00 17,4 5,7 23,3 25,1 16,3 13,4 15 8 29 16 ONO 1021,4 31 59 0,0
22.05.2017 11:00:00 15,9 5,8 19,5 22,2 15,6 13,4 16 9 29 16 NO 1022,2 43 60 0,0
22.05.2017 10:00:00 15,8 7,1 20,2 19,4 15,0 13,4 16 9 26 14 ONO 1022,4 33 60 0,0
22.05.2017 09:00:00 14,4 6,5 18,2 16,1 14,8 13,4 14 8 23 13 ONO 1022,8 55 60 0,0
22.05.2017 08:00:00 12,2 6,1 15,0 13,0 15,0 13,4 4 2 10 5 N 1023,2 61 60 0,0
22.05.2017 07:00:00 8,6 4,9 8,2 10,9 15,4 13,4 4 2 7 4 N 1024,0 54 28 0,0
22.05.2017 06:00:00 8,3 4,8 6,6 11,0 15,8 13,4 6 3 8 4 NNO 1023,9 48 8 0,0

tt = temperatuur
td = dauwpunt
tt 5cm = temperatuur 5cm
tt -5cm = temperatuur -5cm
tt -20cm = temperatuur -20cm
tt -100cm = temperatuur -100cm
ff = windsnelheid
fx = windstoten
dd = windrichting
ppp = luchtdruk
vv = zicht
sd = Zonneschijnduur
rr = neerslag

Weerstations in de omgeving